カタログに戻る

STARLINK-6236

運用中通信VLEO
NORAD 56422·PAYLOAD·🇺🇸 United States

打ち上げ May 4, 2023 から Cape Canaveral Space Force Station

Loading…

次のパス (今後24時間)

TLE

最新Source: CelesTrak SupGP

元期: Sep 15, 2026, 02:23 UTC

1 56422C 23061BA  26258.09979167 -.00006758  00000+0 -24482-3 0  2580
2 56422  43.0016 189.9509 0001571 264.5749 199.4970 15.27575368    16

AllMySatでSTARLINK-6236をリアルタイム追跡

Download on the App Store